Regional Weather Roundup
Issued by NWS Jackson, KY

Home | Current Version | Previous Version | Text Only | Print | Product List | Glossary Off
Versions: 1 2 3 4 5 6 7 8 9 10 11 12 13 14 15 16 17 18 19 20 21 22 23 24 25 26 27 28 29 30 31 32 33 34 35 36 37 38 39 40 41 42 43 44 45 46 47 48 49 50

000
ASUS43 KJKL 011410
RWRJKL

EAST KENTUCKY HOURLY WEATHER ROUNDUP
NATIONAL WEATHER SERVICE JACKSON KY
1000 AM EDT WED JUL 01 2015

NOTE: "FAIR" INDICATES FEW OR NO CLOUDS BELOW 12,000 FEET WITH
NO SIGNIFICANT WEATHER AND/OR OBSTRUCTIONS TO VISIBILITY.

* THESE REPORTS ARE NOT UNDER NWS QUALITY CONTROL AND MAY NOT
  REPORT WEATHER SUCH AS PRECIPITATION AND FOG.

KYZ079-080-083-085-087-088-110-112-115-119-120-011500
...EASTERN KENTUCKY...

CITY           SKY/WX    TMP DP  RH WIND       PRES   REMARKS
JACKSON        CLOUDY    69  67  93 CALM      30.00R FOG
LONDON         CLOUDY    75  67  76 VRB5      29.99S
SOMERSET*      CLOUDY    72  72 100 W5        30.00S
MONTICELLO*    PTSUNNY   76  73  90 SW6       30.02S
MIDDLESBORO*   CLOUDY    71  69  92 CALM      30.02R
HARLAN APT*      N/A     68  63  83 NW3       30.03S
BLACK MTN*       N/A     66  63  88 E1          N/A
PIKEVILLE APT* CLOUDY    70  66  88 SW3       29.99R
BIG SANDY*     CLOUDY    70  67  90 SW5       29.98S
MOREHEAD APT*  PTSUNNY   68  66  94 CALM      29.99R FOG
$$

KYZ035-036-041-042-044-050-067-078-099-011500
...CENTRAL KENTUCKY...

CITY           SKY/WX    TMP DP  RH WIND       PRES   REMARKS
MT STERLING*   CLOUDY    70  68  94 W7        29.99R FOG
FLEMING/MASON* PTSUNNY   68  64  88 W3        29.99R
DANVILLE*      MOSUNNY   73  68  83 W7        29.99S
RICHMOND*      PTSUNNY   73  66  78 SW9       29.96F
LEXINGTON      CLOUDY    72  68  87 W8        29.96F FOG
FRANKFORT      PTSUNNY   72  68  87 VRB3      29.95S FOG
$$

KYZ091>093-OHZ055-061-077-WVZ005-015-034-035-042-011500
...SOUTHERN OHIO/WEST VIRGINIA...

CITY           SKY/WX    TMP DP  RH WIND       PRES   REMARKS
COVINGTON      MOSUNNY   71  61  70 CALM      29.96R
COLUMBUS       PTSUNNY   67  60  78 NW5       29.91R
DAYTON         PTSUNNY   68  59  73 NW6       29.95R
WILMINGTON     PTSUNNY   68  56  65 VRB5      29.95R
HUNTINGTON     CLOUDY    64  63  96 SW3       29.96S
CHARLESTON     CLOUDY    66  63  90 W3        29.96R FOG
PINEVILLE*     CLOUDY    67  65  93 MISG      30.06R
BECKLEY        CLOUDY    65  61  87 W8        30.02S FOG
BLUEFIELD      CLOUDY    68  62  81 W10       30.05S
$$

VAZ002-007-008-TNZ017-027-036-066-071-011500
...SOUTHWEST VIRGINIA/EAST TENNESSEE...

CITY           SKY/WX    TMP DP  RH WIND       PRES   REMARKS
WISE*          MOSUNNY   68  66  94 SW8       30.07S
JONESVILLE*      N/A    N/A N/A N/A MISG        N/A
ABINGDON*      CLOUDY    70  67  89 W7        30.05R
BRISTOL        CLOUDY    71  66  84 W7        30.03R
KNOXVILLE      PTSUNNY   74  69  85 SW7       30.01R
OAK RIDGE      CLOUDY    73  69  87 VRB3      30.03S
CROSSVILLE     MOSUNNY   74  67  78 W8        30.06S
NASHVILLE      CLOUDY    76  72  87 SW6       29.99S
$$

...KEY TO REMARKS...
VSB - VISIBILITY IN MILES
WCI - WIND CHILL INDEX
HX  - HEAT INDEX

$$


USA.gov is the U.S. government's official web portal to all federal, state and local government web resources and services.